Location: *
(48.8780°N, 19.2358°E)
Time: 23:02:28
(UTC+00:00)

STARLINK-68 - Pass Details

Date: 18 October 2019
Orbit: 548 x 551 km, 53.0° (Epoch: 12 November)

Event Time Altitude Azimuth Distance (km) Brightness Sun altitude
Rises 17:30:31 0° 271° (W) 2,716 8.9 -17.5°
Reaches altitude 10° 17:32:49 10° 277° (W) 1,823 7.6 -17.9°
Maximum altitude 17:36:50 48° 353° (N) 722 4.2 -18.5°
Enters shadow 17:38:16 33° 46° (NE) 936 4.4 -18.8°
